Weather History for Maun, Botswana

Change the Weather History Date:

Tuesday, April 1, 2014

  Actual Average Record
Temperature  
Mean Temperature 76 °F -  
Max Temperature 88 °F 86 °F - ()
Min Temperature 64 °F 61 °F - ()
Cooling Degree Days 11    
Growing Degree Days 26 (Base 50)    
Moisture  
Dew Point 61 °F    
Average Humidity 54    
Maximum Humidity 78    
Minimum Humidity 29    
Precipitation  
Precipitation 0.00 in - - ()
Sea Level Pressure  
Sea Level Pressure 30.00 in    
Wind  
Wind Speed 4 mph ()    
Max Wind Speed 9 mph    
Max Gust Speed -    
Visibility 6.1 miles    
Events      
T = Trace of Precipitation, MM = Missing Value Source: Averaged Metar Reports

Daily Weather History Graph

Daily Weather History Graph

Search for Another Location

Airport:

Trip Planner

Search our weather history database for the weather conditions in past years. The results will help you decide how hot, cold, wet, or windy it might be!

Date:

Astronomy

Apr. 01, 2014 Rise Set
Actual Time 6:33 AM CAT 6:26 PM CAT
Civil Twilight 6:11 AM CAT 6:48 PM CAT
Nautical Twilight 5:45 AM CAT 7:14 PM CAT
Astronomical Twilight 5:20 AM CAT 7:39 PM CAT
Moon 7:58 AM CAT (4/1) 7:45 PM CAT (4/1)
Length of Visible Light 12h 37m
Length of Day
11h 53m
Waxing Crescent, 3% of the Moon is Illuminated
Apr 1
Waxing Crescent
Apr 7
First Quarter
Apr 15
Full
Apr 22
Last Quarter
Apr 29
New

Hourly Weather History & Observations

Time (CAT) Temp. Heat Index Dew Point Humidity Pressure Visibility Wind Dir Wind Speed Gust Speed Precip Events Conditions
12:00 AM 71.6 °F - 57.2 °F 60% 30.04 in - SSE 5.8 mph - N/A   Clear
4:00 AM 66.2 °F - 59.0 °F 78% 30.01 in - East 5.8 mph - N/A   Clear
5:00 AM 66.2 °F - 57.2 °F 73% 30.01 in - Variable 2.3 mph - N/A   Clear
7:00 AM 66.2 °F - 59.0 °F 78% 30.04 in - ESE 8.1 mph - N/A   Clear
8:00 AM 67 °F - 58 °F 64%  in 6 mi SSE 3.5 mph - -   Partly Cloudy
8:00 AM 66.2 °F - 57.2 °F 73% 30.04 in - SSE 3.5 mph - N/A   Clear
9:00 AM 71.6 °F - 59.0 °F 64% 30.06 in - SSE 5.8 mph - N/A   Clear
10:00 AM 77.0 °F - 60.8 °F 57% 30.06 in 6.2 mi Calm Calm - N/A   Partly Cloudy
11:00 AM 84 °F - 61 °F 35%  in 6 mi Calm Calm - -   Partly Cloudy
11:00 AM 84.2 °F 84.4 °F 60.8 °F 45% 30.06 in 6.2 mi Calm Calm - N/A   Partly Cloudy
12:00 PM 84.2 °F 85.0 °F 62.6 °F 48% 30.04 in 6.2 mi NNE 5.8 mph - N/A   Partly Cloudy
1:00 PM 86.0 °F 86.1 °F 60.8 °F 43% 29.98 in 6.2 mi NNE 9.2 mph - N/A   Scattered Clouds
2:00 PM 88 °F - 60 °F 29%  in 6 mi NNE 9.2 mph - -   Partly Cloudy
2:00 PM 87.8 °F 87.6 °F 60.8 °F 40% 29.98 in 6.2 mi NNE 9.2 mph - N/A   Scattered Clouds
3:00 PM 87.8 °F 87.1 °F 59.0 °F 38% 29.95 in 6.2 mi ENE 5.8 mph - N/A   Partly Cloudy
4:00 PM 87.8 °F 87.6 °F 60.8 °F 40% 29.92 in 6.2 mi WNW 5.8 mph - N/A   Partly Cloudy
5:00 PM 86 °F - 62 °F 34%  in 6 mi NNE 5.8 mph - -   Partly Cloudy
5:00 PM 86.0 °F 86.1 °F 60.8 °F 43% 29.92 in 6.2 mi NNE 5.8 mph - N/A   Partly Cloudy
6:00 PM 82.4 °F 83.4 °F 62.6 °F 51% 29.95 in 6.2 mi North 3.5 mph - N/A   Partly Cloudy
7:00 PM 80.6 °F 81.8 °F 62.6 °F 54% 29.95 in 6.2 mi Variable 1.2 mph - N/A   Partly Cloudy
8:00 PM 77 °F - 62 °F 51%  in 6 mi Calm Calm - -   Partly Cloudy
8:00 PM 77.0 °F - 62.6 °F 61% 29.98 in 6.2 mi Calm Calm - N/A   Partly Cloudy
10:00 PM 73.4 °F - 64.4 °F 73% 30.01 in 6.2 mi Variable 2.3 mph - N/A   Partly Cloudy
11:00 PM 71.6 °F - 62.6 °F 73% 30.01 in 6.2 mi East 4.6 mph - N/A   Partly Cloudy